LKLB Weather Reports


time (UTC)temp
C
wind
direction
speed
KPH
gust
KPH
rain 1hr
cm
rain 24hr
cm
rain mn
cm
humidity
%
barometer
mb
20260505151924 21 340 8.0 0.0 0.00 0.00 0.00 52
20260505121909 22 320 11.3 0.0 0.00 0.00 0.00 46
20260505111909 21 300 11.3 0.0 0.00 0.00 0.00 43
20260505101910 21 280 11.3 0.0 0.00 0.00 0.00 43
20260505091909 21 200 3.2 0.0 0.00 0.00 0.00 37
20260505081910 18 190 8.0 0.0 0.00 0.00 0.00 42
20260505071909 17 140 3.2 0.0 0.00 0.00 0.00 55
20260505061910 15 110 3.2 0.0 0.00 0.00 0.00 72
20260505051909 12 0 0.0 0.0 0.00 0.00 0.00 76
20260505031908 13 0 0.0 0.0 0.00 0.00 0.00 67
20260505021908 13 130 8.0 0.0 0.00 0.00 0.00 67
20260505011910 12 100 8.0 0.0 0.00 0.00 0.00 71
20260505001908 12 100 3.2 0.0 0.00 0.00 0.00 71
20260504231942 12 140 3.2 0.0 0.00 0.00 0.00 76
20260504221909 12 170 3.2 0.0 0.00 0.00 0.00 71
20260504211908 13 250 8.0 0.0 0.00 0.00 0.00 71
20260504201909 15 270 3.2 0.0 0.00 0.00 0.00 62
20260504191910 16 270 8.0 0.0 0.00 0.00 0.00 59
20260504181911 17 190 3.2 0.0 0.00 0.00 0.00 55
20260504171911 20 200 8.0 0.0 0.00 0.00 0.00 45